Home   Weather   Koudougou   Past weeks

Flag for Burkina Faso Past Weather in Koudougou, Burkina Faso — Yesterday and Last 2 Weeks

Now
86 °F

Passing clouds.


Feels Like: 83 °F
Forecast: 67 / 98 °F
Wind: 12 mph from Northeast

Location: Ouagadougou Airport

Current Time: Jan 21, 2017 at 11:02:10 am

Latest Report: Jan 21, 2017 at 10:00 am


Visibility: N/A

Pressure: 29.95 "Hg

Humidity: 14%

Dew Point: 32 °F

Location of KoudougouLocation

Past Weather in Koudougou — Graph

°F

Koudougou Temperature Yesterday

Maximum temperature yesterday: 99 °F (at 2:00 pm)
Minimum temperature yesterday: 64 °F (at 7:00 am)
Average temperature yesterday: 82 °F

High & Low Weather Summary for the Past Weeks

 TemperatureHumidityPressure
High99 °F (Jan 20, 2:00 pm)56% (Jan 19, 5:00 am)30.07 "Hg (Jan 19, 5:00 am)
Low59 °F (Jan 14, 6:00 am)7% (Jan 15, 3:00 pm)29.80 "Hg (Jan 10, 3:00 pm)
Average77 °F22%29.91 "Hg
* Reported Jan 6 9:00 am — Jan 21 9:00 am, Koudougou, Weather by CustomWeather, © 2017

Note: Actual official high and low records may vary slightly from our data, if they occured in-between our weather recording intervals... More about our weather records

Advertising

Koudougou Weather History for the Previous 24 Hours

Scroll right to see more
 ConditionsComfort  
Time TempWeatherWind HumidityBarometerVisibility
9:00 am
Sat, Jan 21
79 °FClear.10 mph18%29.95 "Hg4 mi
8:00 am73 °FHaze.8 mph22%29.92 "Hg2 mi
7:00 am70 °FClear.6 mph27%29.89 "Hg4 mi
6:00 am72 °FClear.5 mph25%29.89 "Hg10 mi
5:00 am70 °FClear.5 mph31%29.89 "Hg10 mi
4:00 am70 °FClear.3 mph33%29.86 "Hg10 mi
3:00 am72 °FClear.3 mph31%29.86 "Hg10 mi
2:00 am73 °FClear.3 mph27%29.86 "Hg10 mi
1:00 am73 °FClear.3 mph31%29.86 "Hg10 mi
12:00 am73 °FClear.2 mph36%29.86 "Hg10 mi
11:00 pm
Fri, Jan 20
73 °FClear.1 mph38%29.89 "Hg10 mi
10:00 pm77 °FClear.2 mph28%29.89 "Hg5 mi
9:00 pm77 °FClear.1 mph32%29.89 "Hg4 mi
8:00 pm79 °FClear.2 mph26%29.86 "Hg4 mi
7:00 pm82 °FClear.1 mph21%29.83 "Hg4 mi
6:00 pm90 °FClear.2 mph17%29.83 "Hg5 mi
5:00 pm97 °FSunny.No wind11%29.80 "Hg10 mi
4:00 pm99 °FSunny.2 mph11%29.80 "Hg10 mi
3:00 pm99 °FSunny.3 mph10%29.80 "Hg10 mi
2:00 pm99 °FPassing clouds.7 mph11%29.83 "HgN/A
1:00 pm97 °FPassing clouds.8 mph10%29.86 "HgN/A
12:00 pm95 °FClear.8 mph11%29.89 "Hg5 mi
11:00 am91 °FClear.12 mph14%29.92 "Hg4 mi
Weather by CustomWeather, © 2017

See weather overviewHow to use our weather pages